Time,TemperatureF,DewpointF,PressureIn,WindDirection,WindDirectionDegrees,WindSpeedMPH,WindSpeedGustMPH,Humidity,HourlyPrecipIn,Conditions,Clouds,dailyrainin,SoftwareType,DateUTC
2013-12-03 00:13:00,39.5,39.0,29.92,NE,55,3.0,5.0,97,0.00,,,0.00,weatherlink.com 1.10,2013-12-03 05:13:00,
2013-12-03 00:28:00,39.4,39.0,29.92,NE,34,5.0,6.0,97,0.00,,,0.00,weatherlink.com 1.10,2013-12-03 05:28:00,
2013-12-03 00:43:00,39.3,39.0,29.92,ENE,59,1.0,6.0,97,0.00,,,0.00,weatherlink.com 1.10,2013-12-03 05:43:00,
2013-12-03 00:59:00,39.3,39.0,29.91,NE,34,6.0,7.0,97,0.00,,,0.00,weatherlink.com 1.10,2013-12-03 05:59:00,
2013-12-03 01:14:00,39.3,39.0,29.91,NE,52,2.0,7.0,97,0.00,,,0.00,weatherlink.com 1.10,2013-12-03 06:14:00,
2013-12-03 01:29:00,39.5,39.0,29.91,ENE,65,1.0,6.0,97,0.00,,,0.00,weatherlink.com 1.10,2013-12-03 06:29:00,
2013-12-03 01:44:00,39.6,39.0,29.91,NE,49,2.0,5.0,97,0.00,,,0.00,weatherlink.com 1.10,2013-12-03 06:44:00,
2013-12-03 01:59:00,39.2,39.0,29.91,North,11,5.0,5.0,97,0.00,,,0.00,weatherlink.com 1.10,2013-12-03 06:59:00,
2013-12-03 02:14:00,38.5,38.0,29.92,NNE,29,5.0,6.0,97,0.00,,,0.00,weatherlink.com 1.10,2013-12-03 07:14:00,
2013-12-03 02:29:00,38.5,38.0,29.91,NNE,32,2.0,6.0,97,0.00,,,0.00,weatherlink.com 1.10,2013-12-03 07:29:00,
2013-12-03 02:44:00,38.8,38.0,29.91,NE,47,2.0,3.0,97,0.00,,,0.00,weatherlink.com 1.10,2013-12-03 07:44:00,
2013-12-03 02:59:00,38.6,38.0,29.91,NNE,25,6.0,6.0,97,0.00,,,0.00,weatherlink.com 1.10,2013-12-03 07:59:00,
2013-12-03 03:14:00,38.5,38.0,29.91,NNE,17,5.0,5.0,97,0.00,,,0.00,weatherlink.com 1.10,2013-12-03 08:14:00,
2013-12-03 03:29:00,38.3,38.0,29.90,NW,314,4.0,6.0,97,0.00,,,0.00,weatherlink.com 1.10,2013-12-03 08:29:00,
2013-12-03 03:44:00,38.2,38.0,29.90,NNE,20,6.0,6.0,97,0.00,,,0.00,weatherlink.com 1.10,2013-12-03 08:44:00,
2013-12-03 03:59:00,38.1,37.0,29.90,NNE,31,6.0,6.0,97,0.00,,,0.00,weatherlink.com 1.10,2013-12-03 08:59:00,
2013-12-03 04:14:00,37.8,37.0,29.91,NNE,24,5.0,5.0,97,0.00,,,0.00,weatherlink.com 1.10,2013-12-03 09:14:00,
2013-12-03 04:29:00,37.7,37.0,29.91,NNE,23,5.0,5.0,97,0.00,,,0.00,weatherlink.com 1.10,2013-12-03 09:29:00,
2013-12-03 04:44:00,37.5,37.0,29.90,North,10,5.0,6.0,97,0.00,,,0.00,weatherlink.com 1.10,2013-12-03 09:44:00,
2013-12-03 04:59:00,37.5,37.0,29.91,NNW,342,4.0,6.0,97,0.00,,,0.00,weatherlink.com 1.10,2013-12-03 09:59:00,
2013-12-03 05:14:00,37.2,37.0,29.91,NNE,12,5.0,6.0,97,0.00,,,0.00,weatherlink.com 1.10,2013-12-03 10:14:00,
2013-12-03 05:29:00,37.1,36.0,29.91,North,11,6.0,7.0,97,0.00,,,0.00,weatherlink.com 1.10,2013-12-03 10:29:00,
2013-12-03 05:44:00,37.0,36.0,29.91,NNE,16,7.0,7.0,97,0.00,,,0.00,weatherlink.com 1.10,2013-12-03 10:44:00,
2013-12-03 05:59:00,36.9,36.0,29.91,NNE,16,7.0,8.0,97,0.00,,,0.00,weatherlink.com 1.10,2013-12-03 10:59:00,
2013-12-03 06:14:00,36.9,36.0,29.91,NNE,26,7.0,7.0,97,0.00,,,0.00,weatherlink.com 1.10,2013-12-03 11:14:00,
2013-12-03 06:29:00,36.9,36.0,29.91,North,351,5.0,7.0,97,0.00,,,0.00,weatherlink.com 1.10,2013-12-03 11:29:00,
2013-12-03 06:44:00,36.9,36.0,29.90,NNE,29,5.0,6.0,97,0.00,,,0.00,weatherlink.com 1.10,2013-12-03 11:44:00,
2013-12-03 06:59:00,36.8,36.0,29.90,NNE,21,5.0,6.0,97,0.00,,,0.00,weatherlink.com 1.10,2013-12-03 11:59:00,
2013-12-03 07:14:00,36.7,36.0,29.90,North,350,5.0,7.0,97,0.00,,,0.00,weatherlink.com 1.10,2013-12-03 12:14:00,
2013-12-03 07:29:00,36.5,36.0,29.90,NNW,338,6.0,7.0,97,0.00,,,0.00,weatherlink.com 1.10,2013-12-03 12:29:00,
2013-12-03 07:44:00,36.5,36.0,29.90,NNW,339,5.0,6.0,97,0.00,,,0.00,weatherlink.com 1.10,2013-12-03 12:44:00,
2013-12-03 07:59:00,36.6,36.0,29.90,NNE,20,5.0,6.0,97,0.00,,,0.00,weatherlink.com 1.10,2013-12-03 12:59:00,
2013-12-03 08:14:00,36.7,36.0,29.90,North,355,5.0,5.0,97,0.00,,,0.00,weatherlink.com 1.10,2013-12-03 13:14:00,
2013-12-03 08:29:00,36.8,36.0,29.90,NNW,337,7.0,8.0,97,0.00,,,0.00,weatherlink.com 1.10,2013-12-03 13:29:00,
2013-12-03 08:44:00,36.9,36.0,29.91,NNW,339,5.0,8.0,97,0.00,,,0.00,weatherlink.com 1.10,2013-12-03 13:44:00,
2013-12-03 08:59:00,37.0,36.0,29.91,NNW,337,6.0,8.0,97,0.00,,,0.00,weatherlink.com 1.10,2013-12-03 13:59:00,
2013-12-03 09:14:00,36.7,36.0,29.91,NNW,347,7.0,9.0,97,0.00,,,0.00,weatherlink.com 1.10,2013-12-03 14:14:00,
2013-12-03 09:29:00,36.8,36.0,29.90,NNW,332,8.0,8.0,97,0.00,,,0.00,weatherlink.com 1.10,2013-12-03 14:29:00,
2013-12-03 09:44:00,37.0,36.0,29.90,NNE,12,8.0,9.0,97,0.00,,,0.00,weatherlink.com 1.10,2013-12-03 14:44:00,
2013-12-03 10:00:00,37.2,37.0,29.90,NNW,327,8.0,9.0,97,0.00,,,0.00,weatherlink.com 1.10,2013-12-03 15:00:00,
2013-12-03 10:14:00,37.2,37.0,29.89,NNW,334,6.0,11.0,97,0.00,,,0.00,weatherlink.com 1.10,2013-12-03 15:14:00,
2013-12-03 10:29:00,37.3,37.0,29.89,NNW,329,8.0,11.0,97,0.00,,,0.00,weatherlink.com 1.10,2013-12-03 15:29:00,
2013-12-03 10:44:00,37.2,37.0,29.88,NNW,334,9.0,13.0,97,0.00,,,0.00,weatherlink.com 1.10,2013-12-03 15:44:00,
2013-12-03 10:59:00,37.4,37.0,29.88,NNW,346,12.0,14.0,97,0.00,,,0.00,weatherlink.com 1.10,2013-12-03 15:59:00,
2013-12-03 11:14:00,37.8,37.0,29.88,NNE,31,8.0,11.0,97,0.00,,,0.00,weatherlink.com 1.10,2013-12-03 16:14:00,
2013-12-03 11:29:00,38.1,37.0,29.88,NNW,347,9.0,12.0,97,0.00,,,0.00,weatherlink.com 1.10,2013-12-03 16:29:00,
2013-12-03 11:44:00,38.4,38.0,29.87,NNE,15,8.0,9.0,97,0.00,,,0.00,weatherlink.com 1.10,2013-12-03 16:44:00,
2013-12-03 11:59:00,38.8,38.0,29.87,North,349,9.0,13.0,97,0.00,,,0.00,weatherlink.com 1.10,2013-12-03 16:59:00,
2013-12-03 12:14:00,39.1,38.0,29.86,NNE,28,9.0,12.0,97,0.00,,,0.00,weatherlink.com 1.10,2013-12-03 17:14:00,
2013-12-03 12:29:00,39.4,39.0,29.86,NNW,345,10.0,14.0,97,0.00,,,0.00,weatherlink.com 1.10,2013-12-03 17:29:00,
2013-12-03 12:44:00,39.5,39.0,29.86,North,5,11.0,12.0,96,0.00,,,0.00,weatherlink.com 1.10,2013-12-03 17:44:00,
2013-12-03 13:00:00,39.6,39.0,29.86,NNE,20,9.0,11.0,96,0.00,,,0.00,weatherlink.com 1.10,2013-12-03 18:00:00,
2013-12-03 13:15:00,39.6,38.0,29.85,North,360,12.0,14.0,95,0.00,,,0.00,weatherlink.com 1.10,2013-12-03 18:15:00,
2013-12-03 13:30:00,39.7,38.0,29.85,NNE,16,11.0,13.0,95,0.00,,,0.00,weatherlink.com 1.10,2013-12-03 18:30:00,
2013-12-03 13:45:00,40.3,39.0,29.84,NNE,18,9.0,13.0,94,0.00,,,0.00,weatherlink.com 1.10,2013-12-03 18:45:00,
2013-12-03 14:00:00,40.8,39.0,29.84,NE,34,12.0,14.0,93,0.00,,,0.00,weatherlink.com 1.10,2013-12-03 19:00:00,
2013-12-03 14:30:00,41.7,39.0,29.84,NNW,348,10.0,15.0,91,0.00,,,0.00,weatherlink.com 1.10,2013-12-03 19:30:00,
2013-12-03 14:45:00,41.7,39.0,29.84,North,11,15.0,20.0,90,0.00,,,0.00,weatherlink.com 1.10,2013-12-03 19:45:00,
2013-12-03 15:00:00,41.7,39.0,29.84,NNW,346,14.0,18.0,91,0.00,,,0.00,weatherlink.com 1.10,2013-12-03 20:00:00,
2013-12-03 15:15:00,41.6,39.0,29.84,NNE,32,11.0,16.0,90,0.00,,,0.00,weatherlink.com 1.10,2013-12-03 20:15:00,
2013-12-03 15:30:00,41.2,39.0,29.85,NNE,17,12.0,14.0,90,0.00,,,0.00,weatherlink.com 1.10,2013-12-03 20:30:00,
2013-12-03 15:45:00,40.9,39.0,29.85,NNE,32,13.0,18.0,91,0.00,,,0.00,weatherlink.com 1.10,2013-12-03 20:45:00,
2013-12-03 16:00:00,40.7,38.0,29.84,NNE,31,13.0,18.0,91,0.00,,,0.00,weatherlink.com 1.10,2013-12-03 21:00:00,
2013-12-03 16:15:00,40.5,38.0,29.84,NE,39,12.0,16.0,91,0.00,,,0.00,weatherlink.com 1.10,2013-12-03 21:15:00,
2013-12-03 16:30:00,40.4,38.0,29.84,NNE,28,11.0,13.0,91,0.00,,,0.00,weatherlink.com 1.10,2013-12-03 21:30:00,
2013-12-03 16:45:00,40.3,38.0,29.84,NE,43,8.0,11.0,91,0.00,,,0.00,weatherlink.com 1.10,2013-12-03 21:45:00,
2013-12-03 17:00:00,40.1,38.0,29.84,NE,34,9.0,16.0,91,0.00,,,0.00,weatherlink.com 1.10,2013-12-03 22:00:00,
2013-12-03 17:15:00,39.9,37.0,29.85,NNE,30,9.0,14.0,90,0.00,,,0.00,weatherlink.com 1.10,2013-12-03 22:15:00,
2013-12-03 17:30:00,39.6,37.0,29.84,NE,34,9.0,15.0,90,0.00,,,0.00,weatherlink.com 1.10,2013-12-03 22:30:00,
2013-12-03 17:45:00,39.2,37.0,29.84,NNE,31,10.0,14.0,91,0.00,,,0.00,weatherlink.com 1.10,2013-12-03 22:45:00,
2013-12-03 18:00:00,38.9,37.0,29.84,NNE,28,10.0,13.0,91,0.00,,,0.00,weatherlink.com 1.10,2013-12-03 23:00:00,
2013-12-03 18:15:00,38.5,36.0,29.84,North,351,14.0,14.0,91,0.00,,,0.00,weatherlink.com 1.10,2013-12-03 23:15:00,
2013-12-03 18:30:00,38.1,36.0,29.85,NNE,15,8.0,14.0,92,0.00,,,0.00,weatherlink.com 1.10,2013-12-03 23:30:00,
2013-12-03 18:45:00,38.0,36.0,29.85,NNW,348,11.0,13.0,91,0.00,,,0.00,weatherlink.com 1.10,2013-12-03 23:45:00,
2013-12-03 19:00:00,37.6,36.0,29.85,NNE,12,8.0,9.0,92,0.00,,,0.00,weatherlink.com 1.10,2013-12-04 00:00:00,
2013-12-03 19:30:00,37.4,35.0,29.86,NNW,346,6.0,7.0,91,0.00,,,0.00,weatherlink.com 1.10,2013-12-04 00:30:00,
2013-12-03 19:45:00,37.5,35.0,29.86,NNE,31,15.0,19.0,89,0.00,,,0.00,weatherlink.com 1.10,2013-12-04 00:45:00,
2013-12-03 20:00:00,37.6,35.0,29.85,NNE,21,16.0,16.0,89,0.00,,,0.00,weatherlink.com 1.10,2013-12-04 01:00:00,
2013-12-03 20:15:00,37.4,34.0,29.85,NNE,25,12.0,16.0,88,0.00,,,0.00,weatherlink.com 1.10,2013-12-04 01:15:00,
2013-12-03 20:30:00,37.2,34.0,29.86,North,355,12.0,19.0,87,0.00,,,0.00,weatherlink.com 1.10,2013-12-04 01:30:00,
2013-12-03 20:45:00,36.9,33.0,29.86,North,360,7.0,12.0,87,0.00,,,0.00,weatherlink.com 1.10,2013-12-04 01:45:00,
2013-12-03 21:00:00,36.6,33.0,29.86,North,349,8.0,16.0,87,0.00,,,0.00,weatherlink.com 1.10,2013-12-04 02:00:00,
2013-12-03 21:15:00,36.5,33.0,29.86,NNE,17,11.0,16.0,86,0.00,,,0.00,weatherlink.com 1.10,2013-12-04 02:15:00,
2013-12-03 21:30:00,36.3,33.0,29.87,NNE,28,8.0,15.0,87,0.00,,,0.00,weatherlink.com 1.10,2013-12-04 02:30:00,
2013-12-03 21:45:00,36.2,32.0,29.87,NNE,25,8.0,13.0,85,0.00,,,0.00,weatherlink.com 1.10,2013-12-04 02:45:00,
2013-12-03 22:00:00,36.1,32.0,29.86,NE,38,10.0,14.0,85,0.00,,,0.00,weatherlink.com 1.10,2013-12-04 03:00:00,
2013-12-03 22:15:00,36.0,32.0,29.87,NNE,31,11.0,14.0,85,0.00,,,0.00,weatherlink.com 1.10,2013-12-04 03:15:00,
2013-12-03 22:30:00,35.9,32.0,29.87,NE,34,8.0,11.0,84,0.00,,,0.00,weatherlink.com 1.10,2013-12-04 03:30:00,
2013-12-03 22:45:00,35.5,31.0,29.87,WNW,300,5.0,11.0,85,0.00,,,0.00,weatherlink.com 1.10,2013-12-04 03:45:00,
2013-12-03 23:00:00,34.9,31.0,29.87,NNW,334,8.0,8.0,86,0.00,,,0.00,weatherlink.com 1.10,2013-12-04 04:00:00,
2013-12-03 23:15:00,34.4,31.0,29.87,NW,317,7.0,10.0,87,0.00,,,0.00,weatherlink.com 1.10,2013-12-04 04:15:00,
2013-12-03 23:30:00,34.3,31.0,29.86,NNW,336,8.0,13.0,87,0.00,,,0.00,weatherlink.com 1.10,2013-12-04 04:30:00,
2013-12-03 23:45:00,33.8,31.0,29.86,NW,309,9.0,11.0,88,0.00,,,0.00,weatherlink.com 1.10,2013-12-04 04:45:00,